User: anonymous   Login
Location: *
(34.8620°S, 39.3380°E)
Time: 15:21:28
(UTC+00:00)
Language:

CZ-4B DEB - Orbit

View from above orbital plane
View from above orbital plane
View from above satellite
View from above satellite

Ground track
Ground track

The orbit data is extracted from the following two-line orbital elements,

1 27433U 02024D   21296.98798201  .00000150  00000-0  10627-3 0  9996
2 27433  99.0879 305.8154 0013565 253.1429 106.8255 14.12528324  1588
Epoch (UTC): 23 October 2021 23:42:41
Eccentricity: 0.0013565
inclination: 99.0879°
perigee height: 841 km
apogee height: 860 km
right ascension of ascending node: 305.8154°
argument of perigee: 253.1429°
revolutions per day: 14.12528324
mean anomaly at epoch: 106.8255°
orbit number at epoch: 158

The dashed part of the orbit path shows where the satellite is in the earth's shadow,  

DLR